Regional Weather Roundup
Issued by NWS

Home | Current Version | Previous Version | Graphics & Text | Print | Product List | Glossary On
Versions: 1 2 3 4 5 6 7 8 9 10 11 12 13 14 15 16 17 18 19 20 21 22 23 24 25 26 27
000
ASUS45 KSLC 240010
RWRUT

UTAH REGIONAL WEATHER ROUNDUP
NATIONAL WEATHER SERVICE SALT LAKE CITY UT
600 PM MDT THU MAR 23 2017

UTZ001>011-023>025-240100-

NORTHERN UTAH

CITY           SKY/WX    TMP DP  RH WIND       PRES   REMARKS
BRIGHAM CITY     N/A     47  38  69 S6        29.96R
HILL AFB       NOT AVBL
LOGAN          CLOUDY    48  37  65 SE5       29.94R
OGDEN          CLOUDY    41  38  89 S6        29.96R
SALT LAKE CITY CLOUDY    40  36  86 CALM      29.98R
WENDOVER       SUNNY     56  21  25 NW24      29.96R
HEBER CITY     CLOUDY    43  32  65 NE6       29.91R

$$

UTZ011>015-024>027-240100-

CENTRAL/NORTHEAST UTAH

CITY           SKY/WX    TMP DP  RH WIND       PRES   REMARKS
PROVO AIRPORT  CLOUDY    41  36  82 NW21G26   29.97R
MOAB/CANYONLAN CLOUDY    53  35  50 W24G33    29.76R
DELTA          CLOUDY    41  36  81 NW12      30.00R
PRICE          CLOUDY    44  32  62 NW12G23   29.84R
RICHFIELD      PTSUNNY   41  34  75 S8        29.99R
ROOSEVELT      CLOUDY    52  36  54 W16       29.79R
VERNAL         CLOUDY    53  34  48 SW7       29.77R

$$

UTZ013>016-019>022-027-240100-

SOUTHERN UTAH

CITY           SKY/WX    TMP DP  RH WIND       PRES   REMARKS
BRYCE CANYON   LGT SNOW  34  27  75 NW25G41   29.90S WCI  21
CEDAR CITY     CLOUDY    40  33  76 NE10      30.02R WCI  33
MILFORD        CLOUDY   N/A N/A N/A NE9       30.01R
ST GEORGE      CLOUDY    56  41  57 E5        29.98R
HANKSVILLE     PTSUNNY   52  36  54 W7        29.81S
KANAB          SUNNY     50  30  46 W16G23    29.97R
BLANDING       CLOUDY    47  29  50 W20G25    29.85S

$$

REGIONAL REPORTS     COLORADO/ARIZONA

CITY           SKY/WX    TMP DP  RH WIND       PRES   REMARKS
CRAIG, CO      CLOUDY    53  30  41 W18G24    29.74R
GRAND JUNCTION LGT RAIN  49  40  71 SE8       29.75R
RIFLE, CO      CLOUDY    54  27  35 W14       29.72R
MONTROSE, CO   CLOUDY    46  36  68 SE13      29.77F
CORTEZ, CO     CLOUDY    38  36  92 SE10      29.81R WCI  31
COLORADO CITY    N/A     48  36  61 NW18G26   30.00S
PAGE, AZ       CLOUDY    52  50  93 W8G18     29.85F
GRAND CANYON   LGT RAIN  39  34  82 VRB6      29.97R WCI  35
KINGMAN, AZ    CLOUDY    60  18  19 W18       30.00S
FLAGSTAFF, AZ  LGT SNOW  33  31  92 SW14      29.98S FOG     WCI  23

$$

REGIONAL REPORTS    NEVADA/IDAHO/WYOMING

CITY           SKY/WX    TMP DP  RH WIND       PRES   REMARKS
LAS VEGAS, NV  MOSUNNY   70  22  16 NW16G23   29.92F
ELY, NY        SUNNY     48  26  42 NW17      30.01R
ELKO, NV       PTSUNNY   49  24  37 W10       30.04S
POCATELLO, ID  MOSUNNY   53  34  48 W26G33    29.92R
BURLEY, ID     SUNNY     50  22  33 W18G31    29.95R
FORT BRIDGER,  LGT SNOW  35  35 100 W15       29.92R WCI  25
EVANSTON, WY   CLOUDY    34  30  85 W7        29.92R WCI  28
ROCK SPRINGS,  LGT RAIN  38  34  85 NE12      29.84R FOG     WCI  30
KEMMERER, WY   SNOW      34  32  93 NW15      29.89R VSB 1/2 WCI  24

$$




USA.gov is the U.S. government's official web portal to all federal, state and local government web resources and services.